Weather History for Stuttgart, AR

Change the Weather History Date:

Wednesday, October 30, 2013

  Actual Average Record
Temperature  
Mean Temperature 68 °F -  
Max Temperature 73 °F 67 °F 82 °F (1998)
Min Temperature 64 °F 49 °F 35 °F (2010)
Cooling Degree Days 4    
Growing Degree Days 18 (Base 50)    
Moisture  
Dew Point 62 °F    
Average Humidity 79    
Maximum Humidity 88    
Minimum Humidity 69    
Precipitation  
Precipitation 0.00 in - - ()
Sea Level Pressure  
Sea Level Pressure 30.08 in    
Wind  
Wind Speed 10 mph (SSE)    
Max Wind Speed 16 mph    
Max Gust Speed 21 mph    
Visibility 10 miles    
Events      
Averages and records for this station are not official NWS values.
T = Trace of Precipitation, MM = Missing Value Source: NWS Daily Summary

Daily Weather History Graph

Daily Weather History Graph

Search for Another Location

Airport:

Trip Planner

Search our weather history database for the weather conditions in past years. The results will help you decide how hot, cold, wet, or windy it might be!

Date:

Astronomy

Oct. 30, 2013 Rise Set
Actual Time 7:25 AM CDT 6:14 PM CDT
Civil Twilight 6:59 AM CDT 6:40 PM CDT
Nautical Twilight 6:29 AM CDT 7:09 PM CDT
Astronomical Twilight 6:00 AM CDT 7:39 PM CDT
Moon 3:23 AM CDT (10/30) 3:51 PM CDT (10/30)
Length of Visible Light 11h 41m
Length of Day
10h 49m
Waning Crescent, 17% of the Moon is Illuminated
Oct 30
Waning Crescent
Nov 3
New
Nov 9
First Quarter
Nov 17
Full
Nov 25
Last Quarter

Hourly Weather History & Observations

Time (CDT) Temp. Dew Point Humidity Pressure Visibility Wind Dir Wind Speed Gust Speed Precip Events Conditions
12:15 AM 66.2 °F 60.8 °F 83% 30.13 in 10.0 mi South 9.2 mph - N/A   Clear
12:35 AM 66.2 °F 60.8 °F 83% 30.12 in 10.0 mi South 9.2 mph - N/A   Clear
12:55 AM 66.2 °F 59.0 °F 78% 30.12 in 10.0 mi South 10.4 mph - N/A   Clear
1:15 AM 66.2 °F 60.8 °F 83% 30.13 in 10.0 mi South 9.2 mph - N/A   Clear
1:35 AM 66.2 °F 59.0 °F 78% 30.13 in 10.0 mi South 8.1 mph - N/A   Clear
1:55 AM 66.2 °F 59.0 °F 78% 30.13 in 10.0 mi SSE 8.1 mph - N/A   Clear
2:15 AM 66.2 °F 59.0 °F 78% 30.13 in 10.0 mi South 4.6 mph - N/A   Clear
2:35 AM 64.4 °F 59.0 °F 83% 30.13 in 10.0 mi SSE 5.8 mph - N/A   Clear
2:55 AM 66.2 °F 59.0 °F 78% 30.13 in 10.0 mi South 6.9 mph - N/A   Clear
3:15 AM 66.2 °F 60.8 °F 83% 30.12 in 10.0 mi South 8.1 mph - N/A   Clear
3:35 AM 66.2 °F 60.8 °F 83% 30.12 in 10.0 mi South 8.1 mph - N/A   Clear
3:55 AM 66.2 °F 60.8 °F 83% 30.12 in 10.0 mi South 10.4 mph - N/A   Clear
4:15 AM 66.2 °F 59.0 °F 78% 30.13 in 10.0 mi South 10.4 mph - N/A   Clear
4:35 AM 66.2 °F 59.0 °F 78% 30.12 in 10.0 mi SSE 8.1 mph - N/A   Clear
4:55 AM 66.2 °F 59.0 °F 78% 30.13 in 10.0 mi SSE 5.8 mph - N/A   Clear
5:15 AM 64.4 °F 59.0 °F 83% 30.14 in 10.0 mi SE 5.8 mph - N/A   Partly Cloudy
5:35 AM 64.4 °F 59.0 °F 83% 30.14 in 10.0 mi SE 5.8 mph - N/A   Mostly Cloudy
5:55 AM 64.4 °F 59.0 °F 83% 30.15 in 10.0 mi SSE 6.9 mph - N/A   Mostly Cloudy
6:15 AM 64.4 °F 59.0 °F 83% 30.15 in 10.0 mi SE 6.9 mph - N/A   Mostly Cloudy
6:35 AM 64.4 °F 59.0 °F 83% 30.15 in 10.0 mi SSE 8.1 mph - N/A   Scattered Clouds
6:55 AM 64.4 °F 59.0 °F 83% 30.14 in 10.0 mi SE 6.9 mph - N/A   Clear
7:15 AM 64.4 °F 59.0 °F 83% 30.14 in 10.0 mi SE 8.1 mph - N/A   Clear
7:35 AM 64.4 °F 59.0 °F 83% 30.14 in 10.0 mi SSE 8.1 mph - N/A   Clear
7:55 AM 64.4 °F 59.0 °F 83% 30.15 in 10.0 mi SSE 9.2 mph - N/A   Clear
8:15 AM 64.4 °F 59.0 °F 83% 30.15 in 10.0 mi SSE 8.1 mph - N/A   Clear
8:35 AM 64.4 °F 59.0 °F 83% 30.15 in 10.0 mi SE 8.1 mph - N/A   Clear
8:55 AM 64.4 °F 59.0 °F 83% 30.15 in 10.0 mi SSE 8.1 mph - N/A   Clear
9:15 AM 64.4 °F 60.8 °F 88% 30.15 in 10.0 mi SSE 10.4 mph - N/A   Clear
9:35 AM 66.2 °F 60.8 °F 83% 30.16 in 10.0 mi SSE 8.1 mph - N/A   Clear
9:55 AM 66.2 °F 60.8 °F 83% 30.15 in 10.0 mi SSE 11.5 mph - N/A   Clear
10:15 AM 66.2 °F 60.8 °F 83% 30.15 in 10.0 mi SSE 12.7 mph - N/A   Clear
10:35 AM 66.2 °F 60.8 °F 83% 30.14 in 10.0 mi SSE 10.4 mph - N/A   Clear
10:55 AM 68.0 °F 60.8 °F 78% 30.15 in 10.0 mi SSE 13.8 mph - N/A   Clear
11:15 AM 69.8 °F 62.6 °F 78% 30.14 in 10.0 mi SSE 11.5 mph - N/A   Clear
11:35 AM 69.8 °F 62.6 °F 78% 30.14 in 10.0 mi South 12.7 mph - N/A   Clear
11:55 AM 69.8 °F 62.6 °F 78% 30.14 in 10.0 mi SSE 15.0 mph - N/A   Clear
12:15 PM 71.6 °F 62.6 °F 73% 30.13 in 10.0 mi South 13.8 mph - N/A   Clear
12:35 PM 71.6 °F 62.6 °F 73% 30.13 in 10.0 mi SSE 12.7 mph - N/A   Clear
12:55 PM 71.6 °F 62.6 °F 73% 30.11 in 10.0 mi South 13.8 mph - N/A   Clear
1:15 PM 71.6 °F 62.6 °F 73% 30.10 in 10.0 mi South 15.0 mph - N/A   Clear
1:35 PM 73.4 °F 62.6 °F 69% 30.08 in 10.0 mi South 15.0 mph - N/A   Clear
1:55 PM 73.4 °F 62.6 °F 69% 30.07 in 10.0 mi South 16.1 mph 20.7 mph N/A   Partly Cloudy
2:15 PM 73.4 °F 62.6 °F 69% 30.06 in 10.0 mi South 16.1 mph - N/A   Mostly Cloudy
2:35 PM 71.6 °F 62.6 °F 73% 30.05 in 10.0 mi South 12.7 mph - N/A   Scattered Clouds
2:55 PM 73.4 °F 62.6 °F 69% 30.04 in 10.0 mi South 16.1 mph 20.7 mph N/A   Partly Cloudy
3:15 PM 71.6 °F 62.6 °F 73% 30.03 in 10.0 mi SSE 12.7 mph - N/A   Partly Cloudy
3:35 PM 71.6 °F 62.6 °F 73% 30.01 in 10.0 mi SSE 12.7 mph - N/A   Clear
3:55 PM 71.6 °F 62.6 °F 73% 29.99 in 10.0 mi SSE 13.8 mph - N/A   Partly Cloudy
4:15 PM 71.6 °F 64.4 °F 78% 29.98 in 10.0 mi SSE 15.0 mph - N/A   Mostly Cloudy
4:35 PM 71.6 °F 64.4 °F 78% 29.98 in 10.0 mi SSE 15.0 mph - N/A   Overcast
4:55 PM 73.4 °F 64.4 °F 73% 29.99 in 10.0 mi South 12.7 mph - N/A   Overcast
5:15 PM 71.6 °F 64.4 °F 78% 30.00 in 10.0 mi SSW 10.4 mph 17.3 mph N/A   Overcast
5:35 PM 71.6 °F 64.4 °F 78% 30.00 in 10.0 mi SSW 9.2 mph - N/A   Overcast
5:55 PM 71.6 °F 62.6 °F 73% 29.97 in 10.0 mi SSE 11.5 mph - N/A   Overcast
6:15 PM 71.6 °F 62.6 °F 73% 29.98 in 10.0 mi South 9.2 mph - N/A   Partly Cloudy
6:35 PM 69.8 °F 62.6 °F 78% 30.00 in 10.0 mi South 6.9 mph - N/A   Clear
6:55 PM 69.8 °F 62.6 °F 78% 30.00 in 10.0 mi SSW 6.9 mph - N/A   Scattered Clouds
7:15 PM 69.8 °F 62.6 °F 78% 30.01 in 10.0 mi SSW 5.8 mph - N/A   Mostly Cloudy
7:35 PM 69.8 °F 62.6 °F 78% 30.00 in 10.0 mi South 6.9 mph - N/A   Mostly Cloudy
7:55 PM 68.0 °F 62.6 °F 83% 30.00 in 10.0 mi South 8.1 mph - N/A   Partly Cloudy
8:15 PM 68.0 °F 62.6 °F 83% 30.01 in 10.0 mi South 8.1 mph - N/A   Partly Cloudy
8:35 PM 69.8 °F 62.6 °F 78% 30.00 in 10.0 mi South 10.4 mph - N/A   Scattered Clouds
8:55 PM 69.8 °F 62.6 °F 78% 30.00 in 10.0 mi SSE 9.2 mph - N/A   Partly Cloudy
9:15 PM 69.8 °F 64.4 °F 83% 30.00 in 10.0 mi South 8.1 mph - N/A   Partly Cloudy
9:35 PM 69.8 °F 64.4 °F 83% 29.99 in 10.0 mi South 9.2 mph - N/A   Mostly Cloudy
9:55 PM 69.8 °F 64.4 °F 83% 29.98 in 10.0 mi SSE 10.4 mph - N/A   Mostly Cloudy
10:15 PM 69.8 °F 64.4 °F 83% 29.98 in 10.0 mi South 12.7 mph - N/A   Mostly Cloudy
10:35 PM 69.8 °F 64.4 °F 83% 29.98 in 10.0 mi South 10.4 mph - N/A   Overcast
10:55 PM 69.8 °F 64.4 °F 83% 29.97 in 10.0 mi SSE 10.4 mph - N/A   Overcast
11:15 PM 69.8 °F 64.4 °F 83% 29.96 in 10.0 mi South 12.7 mph - N/A   Mostly Cloudy
11:35 PM 68.0 °F 64.4 °F 88% 29.95 in 10.0 mi SSE 9.2 mph - N/A   Mostly Cloudy